Location: Dötzum
(52.0808°N, 9.8063°E)
Time: 06:32:55
(UTC+00:00)

Cosmos 2369 Rocket - Pass Details

Date: 27 May 2022
Orbit: 830 x 851 km, 71.0° (Epoch: 26 June)

Event Time Altitude Azimuth Distance (km) Brightness Sun altitude
Rises 01:34:06 0° 328° (NNW) 3,388 5.7 -10.9°
Reaches altitude 10° 01:36:33 10° 328° (NNW) 2,449 5.0 -10.7°
Maximum altitude 01:42:10 81° 242° (WSW) 846 2.1 -10.2°
Drops below altitude 10° 01:47:45 10° 156° (SSE) 2,433 4.3 -9.7°
Sets 01:50:10 0° 155° (SSE) 3,364 5.0 -9.5°
